This demonstration page uses our WeatherBlox Daily Observations layout. Learn more.

Left ArrowRight Arrow

30.21309, -93.2044

Hourly Observations for October 18, 2015

Temp ( °F °C ) Dew Point ( °F °C ) Humidity (%) Winds ( mph kmh ) Pressure ( in mb ) Visibility ( mi km ) Precip ( " mm )
12:15 am 00:15 Clear 60 15.8 36 2.1 40 40 NE 5 7 30.27 1025 10 16 0.00 0.00
12:35 am 00:35 Clear 60 15.6 36 2.4 41 41 NNE 6 9 30.27 1025 10 16 0.00 0.00
12:55 am 00:55 Clear 60 15.5 36 2.2 41 41 NE 6 9 30.27 1025 10 16 0.00 0.00
1:15 am 01:15 Clear 59 15.2 36 2.2 42 42 NNE 6 9 30.27 1025 10 16 0.00 0.00
1:35 am 01:35 Clear 59 15 36 2.1 42 42 NNE 7 11 30.27 1025 10 16 0.00 0.00
1:55 am 01:55 Clear 58 14.6 36 2 43 43 NNE 3 6 30.27 1025 10 16 0.00 0.00
2:15 am 02:15 Clear 57 13.9 36 2.2 45 45 NNE 3 6 30.27 1025 10 16 0.00 0.00
2:35 am 02:35 Clear 56 13.5 36 2.3 47 47 NNE 3 6 30.27 1025 10 16 0.00 0.00
2:55 am 02:55 Clear 57 13.7 36 2.2 46 46 NE 6 9 30.27 1025 10 16 0.00 0.00
3:15 am 03:15 Clear 56 13.1 37 2.5 49 49 NNE 6 9 30.27 1025 10 16 0.00 0.00
3:35 am 03:35 Clear 55 13 36 2.3 48 48 NNE 3 6 30.27 1025 10 16 0.00 0.00
3:55 am 03:55 Clear 54 12.3 37 2.6 52 52 N 3 6 30.27 1025 10 16 0.00 0.00
4:15 am 04:15 Clear 53 11.7 39 3.7 58 58 NNW 3 6 30.27 1025 10 16 0.00 0.00
4:35 am 04:35 Clear 52 11.1 40 4.3 63 63 Calm 30.27 1025 10 16 0.00 0.00
4:55 am 04:55 Clear 52 10.9 39 3.7 61 61 NNW 3 6 30.27 1025 10 16 0.00 0.00
5:15 am 05:15 Clear 52 10.9 38 3.3 60 60 Calm 30.27 1025 10 16 0.00 0.00
6:00 am 06:00 Mostly Clear 52 11 37 3 58 58 N 3 6 30.30 1026 10 16 0.00 0.00
6:50 am 06:50 Mostly Clear 52 11 37 3 58 58 NNE 6 9 30.30 1026 10 16 0.00 0.00
7:50 am 07:50 Mostly Sunny 52 11 37 3 58 58 NNE 6 9 30.33 1027 10 16 0.00 0.00
8:50 am 08:50 Mostly Sunny 57 14 37 3 48 48 NE 10 17 30.36 1028 10 16 0.00 0.00
10:45 am 10:45 Mostly Sunny 66 19 36 2 32 32 NE 14 22 30.36 1028 10 16 0.00 0.00
11:50 am 11:50 Mostly Sunny 72 22 36 2 27 27 NE 9 15 30.36 1028 10 16 0.00 0.00
12:50 pm 12:50 Mostly Sunny 73 23 36 2 25 25 ENE 12 19 30.33 1027 10 16 0.00 0.00
1:50 pm 13:50 Mostly Sunny 77 25 36 2 22 22 NE 7 11 30.27 1025 10 16 0.00 0.00
2:50 pm 14:50 Mostly Sunny 79 26 36 2 21 21 N 8 13 30.27 1025 10 16 0.00 0.00
3:50 pm 15:50 Mostly Sunny 81 27 36 2 20 20 NE 12 19 30.24 1024 10 16 0.00 0.00
4:50 pm 16:50 Mostly Sunny 81 27 36 2 20 20 NNE 7 11 30.24 1024 10 16 0.00 0.00
5:50 pm 17:50 Mostly Sunny 77 25 36 2 22 22 NE 6 9 30.24 1024 10 16 0.00 0.00
6:50 pm 18:50 Mostly Clear 72 22 36 2 27 27 NE 5 7 30.24 1024 10 16 0.00 0.00
7:50 pm 19:50 Mostly Clear 66 19 36 2 32 32 NE 3 6 30.27 1025 10 16 0.00 0.00
8:50 pm 20:50 Mostly Clear 63 17 39 4 42 42 NNE 3 6 30.27 1025 10 16 0.00 0.00
9:50 pm 21:50 Mostly Clear 61 16 39 4 45 45 Calm 30.27 1025 10 16 0.00 0.00
10:15 pm 22:15 Clear 62 16.6 37 2.7 40 40 NE 6 9 30.30 1026 10 16 0.00 0.00
10:35 pm 22:35 Clear 61 16.1 37 2.8 41 41 NE 3 6 30.30 1026 10 16 0.00 0.00
10:55 pm 22:55 Clear 60 15.8 37 3 43 43 NE 3 6 30.30 1026 10 16 0.00 0.00
11:15 pm 23:15 Clear 61 15.9 37 2.6 41 41 NE 6 9 30.30 1026 10 16 0.00 0.00
11:35 pm 23:35 Clear 60 15.8 37 2.5 41 41 NE 6 9 30.30 1026 10 16 0.00 0.00
11:55 pm 23:55 Clear 60 15.6 36 2.3 41 41 NE 5 7 30.30 1026 10 16 0.00 0.00

Powered by AerisWeather